This is the latest recevied weather packets stored in our database for station/object VE3EP-1. If no packets are shown the sender has not sent any weather packets the latest 10 day(s).
| Time | Temp. | Humidity | Pressure | Rain* | Wind** | Luminosity | Snow |
|---|---|---|---|---|---|---|---|
| 1777821729 | 6.67° C | 68% | 1015.4 hPa | 0 mm | - | - | - |
| 1777820528 | 6.11° C | 62% | 1015.8 hPa | 0 mm | - | - | - |
| 1777819929 | 6.11° C | 62% | 1015.9 hPa | 0 mm | - | - | - |
| 1777819330 | 6.11° C | 56% | 1015.9 hPa | 0 mm | - | - | - |
| 1777818129 | 6.11° C | 59% | 1015.8 hPa | 0 mm | - | - | - |
| 1777816928 | 6.11° C | 65% | 1016 hPa | 0 mm | - | - | - |
| 1777816329 | 6.11° C | 69% | 1016.1 hPa | 0 mm | - | - | - |
| 1777814528 | 6.11° C | 68% | 1016.2 hPa | 0 mm | - | - | - |
| 1777813329 | 5.56° C | 69% | 1016.1 hPa | 0 mm | - | - | - |
| 1777812728 | 5.56° C | 66% | 1016.2 hPa | 0 mm | - | - | - |
| 1777812128 | 6.11° C | 55% | 1016.1 hPa | 0 mm | - | - | - |
| 1777811528 | 6.11° C | 54% | 1015.9 hPa | 0 mm | - | - | - |
| 1777810929 | 5.56° C | 59% | 1016.1 hPa | 0 mm | - | - | - |
| 1777810329 | 4.44° C | 65% | 1016 hPa | 0 mm | - | - | - |
| 1777809128 | 4.44° C | 71% | 1015.9 hPa | 0 mm | - | - | - |
| 1777808529 | 4.44° C | 66% | 1015.9 hPa | 0 mm | - | - | - |
| 1777807929 | 4.44° C | 64% | 1016 hPa | 0 mm | - | - | - |
| 1777807328 | 4.44° C | 61% | 1016.1 hPa | 0 mm | - | - | - |
| 1777806730 | 3.89° C | 62% | 1016.1 hPa | 0 mm | - | - | - |
| 1777806128 | 3.33° C | 64% | 1015.9 hPa | 0 mm | - | - | - |
| 1777805528 | 2.78° C | 70% | 1015.5 hPa | 0 mm | - | - | - |
| 1777804329 | 2.22° C | 71% | 1015.7 hPa | 0 mm | - | - | - |
| 1777803729 | 2.22° C | 71% | 1015.7 hPa | 0 mm | - | - | - |
| 1777802528 | 2.22° C | 67% | 1015.7 hPa | 0 mm | - | - | - |
| 1777801928 | 2.78° C | 67% | 1015.8 hPa | 0 mm | - | - | - |
* Rain latest hour (hover to see other rain measurements)
** Current wind speed in m/s (hover to see current wind gust speed)